Terminal Aerodrome Forecast
Issued by NWS State College, PA

Home | Current Version | Previous Version | Text Only | Print | Product List | Glossary On
Versions: 1 2 3 4 5 6 7 8 9 10 11 12 13 14 15 16 17 18 19 20 21 22 23 24 25 26 27 28 29 30 31 32 33 34 35 36 37 38 39 40 41 42 43 44 45 46 47 48
000
FTUS41 KCTP 240529
TAFIPT
TAF
KIPT 240529Z 2406/2506 07005KT P6SM BKN100
     FM241100 10005KT 6SM -FZRAPL OVC050 WS020/24035KT
     FM241400 09005KT 5SM -RA OVC025 WS020/25035KT
     FM241700 VRB05KT P6SM OVC025=

USA.gov is the U.S. government's official web portal to all federal, state and local government web resources and services.